Terminal Aerodrome Forecast
Issued by NWS Columbia, SC

Home | Current Version | Previous Version | Text Only | Print | Product List | Glossary On
Versions: 1 2 3 4 5 6 7 8 9 10 11 12 13 14 15 16 17 18 19 20 21 22 23 24 25 26 27 28 29 30 31 32 33 34 35 36 37 38 39 40 41 42 43 44 45 46
000
FTUS42 KCAE 261500 AAA
TAFAGS
TAF AMD
KAGS 261523Z 2615/2712 27010G18KT P6SM SCT035
     FM270000 31011KT P6SM BKN150
     FM270500 35005KT P6SM OVC015
     FM271000 01005KT P6SM SCT050=

USA.gov is the U.S. government's official web portal to all federal, state and local government web resources and services.